Location: Unspecified
(43.4680°N, 87.1740°E)
Time: 13:43:19
(UTC+00:00)

Cosmos 1356 Rocket - Pass Details

Date: 04 August 2021
Orbit: 543 x 597 km, 81.2° (Epoch: 19 September)

Event Time Altitude Azimuth Distance (km) Brightness Sun altitude
Exits shadow 18:43:29 19° 60° (ENE) 1,332 5.6 -29.2°
Drops below altitude 10° 18:45:14 10° 38° (NE) 1,817 6.7 -29.2°
Sets 18:47:43 0° 24° (NNE) 2,716 8.0 -29.1°
